Weather History for KLGU - April, 2013

Change the Weather History Date:

Friday, April 26, 2013

  Actual Average Record
Temperature  
Mean Temperature 50 °F -  
Max Temperature 69 °F 60 °F 81 °F (1987)
Min Temperature 30 °F 33 °F 19 °F (1969)
Degree Days  
Heating Degree Days 16    
Moisture  
Dew Point 25 °F    
Average Humidity 45    
Maximum Humidity 76    
Minimum Humidity 15    
Precipitation  
Precipitation 0.00 in - - ()
Sea Level Pressure  
Sea Level Pressure 30.16 in    
Wind  
Wind Speed 2 mph (WNW)    
Max Wind Speed 10 mph    
Max Gust Speed 21 mph    
Visibility 10 miles    
Events      
Averages and records for this station are not official NWS values.
T = Trace of Precipitation, MM = Missing Value Source: NWS Daily Summary

Daily Weather History Graph

Daily Weather History Graph

Search for Another Location

Airport or City:

Trip Planner

Search our weather history database for the weather conditions in past years. The results will help you decide how hot, cold, wet, or windy it might be!

Date:

Astronomy

Apr. 26, 2013 Rise Set
Actual Time 6:30 AM MDT 8:20 PM MDT
Civil Twilight 6:00 AM MDT 8:50 PM MDT
Nautical Twilight 5:24 AM MDT 9:27 PM MDT
Astronomical Twilight 4:44 AM MDT 10:06 PM MDT
Moon 9:48 PM MDT 6:59 AM MDT
Length of Visible Light 14h 50m
Length of Day
13h 50m
Full, 99% of the Moon is Illuminated
Apr 26
Full
May 2
Last Quarter
May 9
New
May 17
First Quarter
May 24
Full

Hourly Weather History & Observations

Time (MDT) Temp. Windchill Dew Point Humidity Pressure Visibility Wind Dir Wind Speed Gust Speed Precip Events Conditions
12:51 AM 37.0 °F - 26.1 °F 65% 30.05 in 10.0 mi Calm Calm - N/A   Clear
1:51 AM 35.1 °F - 26.1 °F 70% 30.07 in 10.0 mi Calm Calm - N/A   Clear
2:51 AM 39.0 °F - 24.1 °F 55% 30.07 in 10.0 mi Calm Calm - N/A   Clear
3:51 AM 33.1 °F - 23.0 °F 66% 30.09 in 10.0 mi Calm Calm - N/A   Clear
4:51 AM 30.9 °F - 24.1 °F 76% 30.12 in 10.0 mi Calm Calm - N/A   Clear
5:51 AM 32.0 °F - 23.0 °F 69% 30.14 in 10.0 mi Calm Calm - N/A   Clear
6:51 AM 30.9 °F - 23.0 °F 72% 30.17 in 10.0 mi Calm Calm - N/A   Clear
7:51 AM 34.0 °F - 26.1 °F 73% 30.19 in 10.0 mi Calm Calm - N/A   Clear
8:51 AM 43.0 °F - 26.1 °F 51% 30.20 in 10.0 mi Calm Calm - N/A   Clear
9:51 AM 46.9 °F - 26.1 °F 44% 30.21 in 10.0 mi North 4.6 mph - N/A   Clear
10:51 AM 53.1 °F - 26.1 °F 35% 30.20 in 10.0 mi Calm Calm - N/A   Clear
11:51 AM 57.9 °F - 27.0 °F 31% 30.22 in 10.0 mi Calm Calm - N/A   Clear
12:51 PM 62.1 °F - 21.9 °F 21% 30.20 in 10.0 mi NW 6.9 mph - N/A   Clear
1:51 PM 64.9 °F - 19.9 °F 18% 30.19 in 10.0 mi NW 4.6 mph - N/A   Clear
2:51 PM 68.0 °F - 25.0 °F 20% 30.15 in 10.0 mi NW 10.4 mph 20.7 mph N/A   Clear
3:51 PM 68.0 °F - 21.0 °F 17% 30.16 in 10.0 mi NW 4.6 mph - N/A   Clear
4:51 PM 69.1 °F - 21.0 °F 16% 30.16 in 10.0 mi West 4.6 mph - N/A   Clear
5:51 PM 69.1 °F - 19.9 °F 15% 30.15 in 10.0 mi Calm Calm - N/A   Clear
6:51 PM 66.9 °F - 24.1 °F 20% 30.15 in 10.0 mi West 3.5 mph - N/A   Clear
7:51 PM 64.0 °F - 30.0 °F 28% 30.15 in 10.0 mi SW 4.6 mph - N/A   Clear
8:51 PM 55.0 °F - 30.9 °F 40% 30.17 in 10.0 mi ESE 5.8 mph - N/A   Clear
9:51 PM 51.1 °F - 30.9 °F 46% 30.19 in 10.0 mi Calm Calm - N/A   Clear
10:51 PM 45.0 °F 42.6 °F 33.1 °F 63% 30.22 in 10.0 mi West 4.6 mph - N/A   Clear
11:51 PM 45.0 °F 41.8 °F 30.9 °F 58% 30.21 in 10.0 mi East 5.8 mph - N/A   Clear